Tracking 19245 objects as of 15-Aug-2018
HD Live streaming from Space Station
objects crossing your sky now

CZ-2C DEB

Track CZ-2C DEB now!
10-day predictions


NORAD ID: 40266
Int'l Code: 2014-059F
Perigee: 692.6 km
Apogee: 965.9 km
Inclination: 98.2 °
Period: 101.3 minutes
Semi major axis: 7200 km
RCS: Unknown
Launch date: September 28, 2014
Source: People's Republic of China (PRC)
Launch site: Jiuquan Satellite Launch Center, China (JSC)

Note: This is SATELLITE DEBRIS
aabbcc
Your satellite tracking list
Your tracking list is empty




NASA's NSSDC Master Catalog

Two Line Element Set (TLE):
1 40266U 14059F   18226.62809731  .00000066  00000-0  41920-4 0  9994
2 40266  98.2283 249.0380 0189818 355.4824   4.4634 14.20960279201042
Source of the keplerian elements: AFSPC